Location: Dugenta
(41.1333°N, 14.4500°E)
Time: 14:55:21
(UTC+00:00)

Cosmos 2084 Rocket - Pass Details

Date: 03 March 2021
Orbit: 527 x 653 km, 62.8° (Epoch: 20 April)

Event Time Altitude Azimuth Distance (km) Brightness Sun altitude
Rises 18:25:30 0° 322° (NW) 2,822 7.6 -17.7°
Reaches altitude 10° 18:27:43 10° 320° (NW) 1,939 6.8 -18.1°
Maximum altitude 18:32:06 72° 237° (WSW) 649 3.7 -18.9°
Enters shadow 18:34:46 24° 157° (SSE) 1,298 4.9 -19.4°
